Location: Gwatt
(46.7204°N, 7.6223°E)
Time: 14:04:37
(UTC+00:00)

Vanguard 3 - All Passes

Search period start: 23 January 2021 00:00
Search period end: 02 February 2021 00:00
Orbit: 508 x 3262 km, 33.3° (Epoch: 22 January)

Date Brightness Start Highest point End Pass type
(mag) Time Alt. Az. Time Alt. Az. Time Alt. Az.
23 Jan - 03:15:25 10° SSW 03:21:20 27° SSE 03:30:27 10° ESE visible
23 Jan - 05:24:37 10° WSW 05:33:03 42° S 05:46:58 10° ESE visible
23 Jan - 07:35:46 10° WSW 07:46:21 37° SSW 08:01:53 10° SE daylight
23 Jan - 09:49:58 10° WSW 10:00:04 21° SW 10:12:14 10° S daylight
24 Jan - 02:04:03 10° S 02:07:52 16° SE 02:12:50 10° ESE visible
24 Jan - 04:11:40 10° SW 04:18:33 36° SSE 04:29:51 10° ESE visible
24 Jan - 06:21:53 10° WSW 06:31:03 40° S 06:45:35 10° SE visible
24 Jan - 08:34:12 10° WSW 08:44:34 27° SSW 08:58:29 10° SSE daylight
24 Jan - 10:56:08 10° SW 10:57:57 10° SW 10:59:49 10° SW daylight
25 Jan - 02:59:15 10° SSW 03:04:36 27° SSE 03:12:48 10° ESE visible
25 Jan - 05:08:31 10° WSW 05:16:10 39° S 05:28:49 10° ESE visible
25 Jan - 07:19:38 10° WSW 07:29:11 32° SSW 07:43:16 10° SE daylight
25 Jan - 09:34:24 10° WSW 09:42:39 17° SW 09:52:30 10° S daylight
26 Jan - 01:47:47 10° S 01:51:11 16° SE 01:55:35 10° ESE visible
26 Jan - 03:55:36 10° SW 04:01:50 34° SSE 04:11:58 10° ESE visible
26 Jan - 06:05:49 10° WSW 06:14:05 35° S 06:27:12 10° SE visible
26 Jan - 08:18:18 10° WSW 08:27:19 23° SSW 08:39:22 10° SSE daylight
27 Jan - 02:43:09 10° SSW 02:47:59 25° SSE 02:55:15 10° ESE visible
27 Jan - 04:52:30 10° WSW 04:59:25 35° S 05:10:42 10° ESE visible
27 Jan - 07:03:41 10° WSW 07:12:08 28° SSW 07:24:31 10° SSE daylight
27 Jan - 09:19:43 10° WSW 09:25:23 13° SW 09:31:52 10° SSW daylight
28 Jan - 01:31:34 10° S 01:34:36 15° SSE 01:38:26 10° ESE visible
28 Jan - 03:39:36 10° SW 03:45:13 31° S 03:54:10 10° ESE visible
28 Jan - 05:49:52 10° WSW 05:57:15 31° S 06:08:46 10° SE visible
28 Jan - 08:02:46 10° WSW 08:10:13 19° SSW 08:19:53 10° S daylight
29 Jan - 02:27:07 10° SW 02:31:27 24° SSE 02:37:48 10° ESE visible
29 Jan - 04:36:34 10° WSW 04:42:45 31° S 04:52:37 10° SE visible
29 Jan - 06:47:56 10° WSW 06:55:13 23° SSW 07:05:36 10° SSE daylight
30 Jan - 01:15:24 10° S 01:18:05 15° SSE 01:21:22 10° ESE visible
30 Jan - 03:23:40 10° SW 03:28:41 28° S 03:36:26 10° ESE visible
30 Jan - 05:34:03 10° WSW 05:40:31 26° SSW 05:50:18 10° SE visible
30 Jan - 07:47:50 10° SW 07:53:14 14° SSW 07:59:51 10° S daylight
31 Jan - 02:11:09 10° SW 02:15:00 22° SSE 02:20:27 10° ESE visible
31 Jan - 04:20:44 10° WSW 04:26:12 27° S 04:34:34 10° SE visible
31 Jan - 06:32:28 10° WSW 06:38:25 19° SSW 06:46:28 10° SSE daylight
01 Feb - 00:59:18 10° S 01:01:38 14° SSE 01:04:26 10° SE night (unlit)
01 Feb - 03:07:48 10° SW 03:12:15 25° S 03:18:48 10° SE visible
01 Feb - 05:18:25 10° WSW 05:23:54 21° SSW 05:31:45 10° SSE visible
